Previsão horária em Plisa

Hoje, 8 Março, Segunda-feira

Tempo Temperatura Precipitação Vento Pressão Humidade
00:00 -7°C° 0 mm 5 m/s 737 mmHg 80%
01:00 -7°C° 0 mm 5 m/s 737 mmHg 83%
02:00 -8°C° 0 mm 5 m/s 738 mmHg 86%
03:00 -8°C° 0.1 mm 5 m/s 738 mmHg 87%
04:00 -8°C° 0.1 mm 5 m/s 738 mmHg 89%
05:00 -8°C° 0.1 mm 4 m/s 738 mmHg 90%
06:00 -8°C° 0 mm 4 m/s 739 mmHg 88%
07:00 -9°C° 0 mm 4 m/s 739 mmHg 86%
08:00 -10°C° 0 mm 5 m/s 740 mmHg 83%
09:00 -10°C° 0 mm 5 m/s 741 mmHg 80%
10:00 -8°C° 0 mm 5 m/s 741 mmHg 76%
11:00 -8°C° 0 mm 5 m/s 742 mmHg 73%
12:00 -7°C° 0.1 mm 5 m/s 743 mmHg 72%
13:00 -7°C° 0.1 mm 5 m/s 743 mmHg 71%
14:00 -7°C° 0.1 mm 5 m/s 744 mmHg 70%
15:00 -7°C° 0 mm 5 m/s 744 mmHg 71%
16:00 -7°C° 0 mm 5 m/s 744 mmHg 72%
17:00 -8°C° 0 mm 4 m/s 745 mmHg 73%
18:00 -8°C° 0 mm 4 m/s 745 mmHg 75%
19:00 -8°C° 0 mm 3 m/s 746 mmHg 77%
20:00 -8°C° 0 mm 3 m/s 746 mmHg 80%
21:00 -8°C° 0 mm 2 m/s 747 mmHg 82%
22:00 -8°C° 0 mm 2 m/s 747 mmHg 84%
23:00 -9°C° 0 mm 2 m/s 747 mmHg 86%

Amanhã, 9 Março, Terça-feira

Tempo Temperatura Precipitação Vento Pressão Humidade
00:00 -9°C° 0 mm 2 m/s 748 mmHg 88%
01:00 -10°C° 0 mm 2 m/s 748 mmHg 90%
02:00 -10°C° 0 mm 2 m/s 749 mmHg 91%
03:00 -10°C° 0 mm 2 m/s 749 mmHg 92%
04:00 -10°C° 0 mm 2 m/s 749 mmHg 92%
05:00 -12°C° 0 mm 2 m/s 749 mmHg 92%
06:00 -10°C° 0 mm 2 m/s 750 mmHg 89%
07:00 -10°C° 0 mm 2 m/s 750 mmHg 86%
08:00 -10°C° 0 mm 2 m/s 751 mmHg 83%
09:00 -9°C° 0 mm 2 m/s 751 mmHg 76%
10:00 -8°C° 0 mm 2 m/s 751 mmHg 69%
11:00 -7°C° 0 mm 2 m/s 751 mmHg 63%
12:00 -6°C° 0 mm 2 m/s 751 mmHg 60%
13:00 -5°C° 0 mm 2 m/s 751 mmHg 58%
14:00 -5°C° 0 mm 2 m/s 751 mmHg 56%
15:00 -5°C° 0 mm 2 m/s 751 mmHg 59%
16:00 -5°C° 0 mm 2 m/s 751 mmHg 62%
17:00 -3°C° 0 mm 1 m/s 751 mmHg 65%
18:00 -4°C° 0 mm 1 m/s 751 mmHg 67%
19:00 -6°C° 0 mm 2 m/s 752 mmHg 70%
20:00 -7°C° 0 mm 2 m/s 752 mmHg 73%
21:00 -7°C° 0 mm 2 m/s 752 mmHg 74%
22:00 -6°C° 0 mm 2 m/s 752 mmHg 75%
23:00 -6°C° 0 mm 2 m/s 752 mmHg 77%

Depois de amanhã, 10 Março, Quarta-feira

Tempo Temperatura Precipitação Vento Pressão Humidade
00:00 -7°C° 0 mm 3 m/s 752 mmHg 77%
01:00 -7°C° 0 mm 3 m/s 752 mmHg 78%
02:00 -7°C° 0 mm 3 m/s 752 mmHg 78%
03:00 -7°C° 0 mm 3 m/s 752 mmHg 79%
04:00 -7°C° 0 mm 3 m/s 752 mmHg 80%
05:00 -7°C° 0 mm 3 m/s 752 mmHg 80%
06:00 -7°C° 0 mm 3 m/s 752 mmHg 80%
07:00 -7°C° 0 mm 3 m/s 752 mmHg 80%
08:00 -7°C° 0 mm 3 m/s 752 mmHg 80%
09:00 -6°C° 0 mm 3 m/s 753 mmHg 75%
10:00 -5°C° 0 mm 3 m/s 753 mmHg 70%
11:00 -5°C° 0 mm 3 m/s 753 mmHg 65%
12:00 -4°C° 0 mm 3 m/s 753 mmHg 62%
13:00 -2°C° 0 mm 2 m/s 753 mmHg 59%
14:00 -2°C° 0 mm 2 m/s 753 mmHg 56%
15:00 -2°C° 0 mm 2 m/s 753 mmHg 59%
16:00 -3°C° 0 mm 2 m/s 753 mmHg 62%
17:00 -1°C° 0 mm 1 m/s 753 mmHg 65%
18:00 -4°C° 0 mm 2 m/s 753 mmHg 69%
19:00 -4°C° 0 mm 2 m/s 754 mmHg 72%
20:00 -5°C° 0 mm 2 m/s 754 mmHg 76%
21:00 -5°C° 0 mm 2 m/s 754 mmHg 79%
22:00 -6°C° 0 mm 2 m/s 754 mmHg 82%
23:00 -6°C° 0 mm 2 m/s 754 mmHg 85%

11 Março, Quinta-feira

Tempo Temperatura Precipitação Vento Pressão Humidade
00:00 -6°C° 0 mm 2 m/s 754 mmHg 85%
01:00 -6°C° 0 mm 2 m/s 754 mmHg 86%
02:00 -6°C° 0 mm 2 m/s 754 mmHg 87%
03:00 -7°C° 0 mm 2 m/s 754 mmHg 87%
04:00 -8°C° 0 mm 3 m/s 754 mmHg 87%
05:00 -8°C° 0 mm 3 m/s 754 mmHg 87%
06:00 -8°C° 0 mm 3 m/s 754 mmHg 85%
07:00 -8°C° 0 mm 3 m/s 754 mmHg 84%
08:00 -8°C° 0 mm 3 m/s 754 mmHg 82%
09:00 -7°C° 0 mm 4 m/s 754 mmHg 76%
10:00 -5°C° 0 mm 4 m/s 754 mmHg 70%
11:00 -4°C° 0 mm 4 m/s 754 mmHg 64%
12:00 -3°C° 0 mm 4 m/s 754 mmHg 61%
13:00 -3°C° 0 mm 4 m/s 753 mmHg 57%
14:00 -2°C° 0 mm 5 m/s 753 mmHg 54%
15:00 -2°C° 0 mm 4 m/s 752 mmHg 56%
16:00 -3°C° 0 mm 4 m/s 752 mmHg 58%
17:00 -3°C° 0 mm 4 m/s 751 mmHg 60%
18:00 -4°C° 0 mm 4 m/s 751 mmHg 63%
19:00 -5°C° 0 mm 5 m/s 751 mmHg 66%
20:00 -6°C° 0 mm 5 m/s 750 mmHg 70%
21:00 -6°C° 0 mm 6 m/s 750 mmHg 70%
22:00 -6°C° 0 mm 6 m/s 749 mmHg 70%
23:00 -8°C° 0 mm 7 m/s 749 mmHg 70%

12 Março, Sexta-feira

Tempo Temperatura Precipitação Vento Pressão Humidade
00:00 -8°C° 0 mm 7 m/s 748 mmHg 73%
01:00 -7°C° 0 mm 7 m/s 747 mmHg 75%
02:00 -7°C° 0 mm 7 m/s 747 mmHg 77%
03:00 -7°C° 0 mm 7 m/s 746 mmHg 75%
04:00 -7°C° 0 mm 8 m/s 745 mmHg 72%
05:00 -8°C° 0 mm 8 m/s 745 mmHg 70%
06:00 -7°C° 0 mm 8 m/s 744 mmHg 74%
07:00 -8°C° 0 mm 9 m/s 743 mmHg 78%
08:00 -8°C° 0 mm 9 m/s 743 mmHg 82%
09:00 -8°C° 0.6 mm 9 m/s 742 mmHg 85%
10:00 -8°C° 0.6 mm 9 m/s 742 mmHg 88%
11:00 -6°C° 0.6 mm 9 m/s 741 mmHg 91%
12:00 -6°C° 0.4 mm 9 m/s 741 mmHg 89%
13:00 -5°C° 0.4 mm 9 m/s 740 mmHg 87%
14:00 -4°C° 0.4 mm 8 m/s 740 mmHg 86%
15:00 -3°C° 0.3 mm 7 m/s 740 mmHg 89%
16:00 -3°C° 0.3 mm 7 m/s 740 mmHg 92%
17:00 -3°C° 0.3 mm 6 m/s 739 mmHg 96%
18:00 -1°C° 0.4 mm 5 m/s 740 mmHg 96%
19:00 -1°C° 0.4 mm 4 m/s 740 mmHg 97%
20:00 -1°C° 0.4 mm 4 m/s 740 mmHg 98%
21:00 -1°C° 0.1 mm 4 m/s 741 mmHg 97%
22:00 -1°C° 0.1 mm 4 m/s 741 mmHg 96%
23:00 -1°C° 0.1 mm 4 m/s 741 mmHg 95%

13 Março, Sábado

Tempo Temperatura Precipitação Vento Pressão Humidade
00:00 -2°C° 0 mm 4 m/s 742 mmHg 95%
01:00 -2°C° 0 mm 4 m/s 742 mmHg 94%
02:00 -3°C° 0 mm 4 m/s 742 mmHg 94%
03:00 -3°C° 0 mm 4 m/s 742 mmHg 94%
04:00 -3°C° 0 mm 4 m/s 743 mmHg 93%
05:00 -3°C° 0 mm 4 m/s 743 mmHg 92%
06:00 -3°C° 0 mm 4 m/s 743 mmHg 91%
07:00 -2°C° 0 mm 5 m/s 743 mmHg 90%
08:00 -2°C° 0 mm 5 m/s 743 mmHg 88%
09:00 -2°C° 0 mm 6 m/s 743 mmHg 85%
10:00 +1°C° 0 mm 6 m/s 743 mmHg 82%
11:00 +2°C° 0 mm 6 m/s 743 mmHg 78%
12:00 +2°C° 0 mm 6 m/s 743 mmHg 76%
13:00 +3°C° 0 mm 6 m/s 742 mmHg 74%
14:00 +3°C° 0 mm 7 m/s 742 mmHg 72%
15:00 +3°C° 0 mm 6 m/s 742 mmHg 76%
16:00 +2°C° 0 mm 6 m/s 742 mmHg 80%
17:00 +2°C° 0 mm 5 m/s 742 mmHg 84%
18:00 +1°C° 0.4 mm 5 m/s 742 mmHg 88%
19:00 +1°C° 0.4 mm 4 m/s 741 mmHg 91%
20:00 0°C° 0.4 mm 4 m/s 741 mmHg 95%
21:00 0°C° 0.6 mm 4 m/s 741 mmHg 95%
22:00 0°C° 0.6 mm 4 m/s 741 mmHg 96%
23:00 0°C° 0.6 mm 4 m/s 741 mmHg 96%
Mostrar mais

Necessitamos do seu Consentimento

A Meteoprog e os seus Fornecedores de Serviços podem armazenar e aceder a dados pessoais como cookies, identificadores do dispositivo ou outras tecnologias semelhantes existentes no seu dispositivo e processar estes dados para personalizar conteúdos e anúncios, assim como funcionalidades nas redes sociais e análise de tráfego.

  • Armazenar e/ou aceder a informações no seu dispositivo

    Os cookies, identificadores do dispositivo ou outras informações podem ser armazenados ou acedidos no seu dispositivo, para os fins acima indicados.

  • Anúncios e conteúdos personalizados, medição de anúncios e conteúdos, dados sobre o público-alvo e desenvolvimento de produtos

    Os anúncios e os conteúdos podem ser personalizados com base num perfil. Podem ser adicionados dados adicionais para uma maior personalização dos anúncios e dos conteúdos. A eficácia dos anúncios e dos conteúdos pode ser medida. Podem ser obtidas informações sobre o público que visualizou os anúncios e os conteúdos. Estes dados podem ser usados para desenvolver ou melhorar sistemas, softwares ou a experiência do utilizador.

Ao clicar em "Eu concordo”, permitirá o uso de cookies, identificadores do dispositivo e web beacons mencionados ou outras tecnologias semelhantes. As configurações do navegador do seu dispositivo podem ser alteradas.

Para certos fins, podem ser invocados interesses legítimos ao invés de consentimento. Pode ler mais informação sobre este assunto na nossa Política de Privacidade e Cookies.